DW6267 Weather Reports


time (UTC)temp
C
wind
direction
speed
KPH
gust
KPH
rain 1hr
cm
rain 24hr
cm
rain mn
cm
humidity
%
barometer
mb
20260504200348 25 305 3.2 0.0 0.00 0.00 0.00 20 1007.2
20260504190342 23 77 4.8 0.0 0.00 0.00 0.00 20 1007.8
20260504180334 23 279 0.0 0.0 0.00 0.00 0.00 24 1008.1
20260504170336 20 262 0.0 0.0 0.00 0.00 0.00 52 1008.7
20260504160332 13 262 0.0 0.0 0.00 0.00 0.00 69 1009.1
20260504150352 11 262 0.0 0.0 0.00 0.00 0.00 79 1009.9
20260504140340 5 262 0.0 0.0 0.00 0.00 0.00 94 1009.6
20260504130345 3 262 0.0 0.0 0.00 0.00 0.00 96 1009.5
20260504110326 4 262 0.0 0.0 0.00 0.00 0.00 93 1010.2
20260504100327 4 262 0.0 0.0 0.00 0.00 0.00 92 1010.2
20260504080403 5 262 0.0 0.0 0.00 0.00 0.00 90 1009.6
20260504070325 6 262 0.0 0.0 0.00 0.00 0.00 87 1009.5
20260504050333 7 262 0.0 0.0 0.00 0.00 0.00 82 1010.3
20260504040334 8 262 0.0 0.0 0.00 0.00 0.00 79 1009.5
20260504030334 10 262 0.0 0.0 0.00 0.00 0.00 74 1008.6
20260504020407 12 262 0.0 0.0 0.00 0.00 0.00 64 1008.7
20260504010330 18 262 0.0 0.0 0.00 0.00 0.00 40 1008.6
20260504000347 23 265 0.0 0.0 0.00 0.00 0.00 26 1008.9
20260503230335 25 250 1.6 0.0 0.00 0.00 0.00 22 1009.1
20260503220335 25 236 0.0 0.0 0.00 0.00 0.00 22 1010.0
20260503210335 25 246 0.0 0.0 0.00 0.00 0.00 22 1010.8